Location: Gad�tanya
(48.0500°N, 20.8500°E)
Time: 11:01:08
(UTC+00:00)

Cosmos 2341 Rocket - Pass Details

Date: 05 July 2020
Orbit: 969 x 1004 km, 82.9° (Epoch: 14 August)

Event Time Altitude Azimuth Distance (km) Brightness Sun altitude
Exits shadow 21:26:56 27° 158° (SSE) 1,768 4.7 -17.3°
Maximum altitude 21:30:13 56° 92° (E) 1,146 4.2 -17.5°
Drops below altitude 10° 21:36:17 10° 16° (NNE) 2,724 7.2 -17.8°
Sets 21:38:50 0° 13° (NNE) 3,674 8.1 -17.9°
